This demonstration page uses our WeatherBlox Daily Observations layout. Learn more.

Left ArrowRight Arrow

Hourly Observations for December 2, 2015

Temp ( °F °C ) Dew Point ( °F °C ) Humidity (%) Winds ( mph kmh ) Pressure ( in mb ) Visibility ( mi km ) Precip ( " mm )
12:46 am 00:46 Cloudy with Light Rain 61 16 57 14 88 88 Calm 29.94 1014 4 6 0.00 0.00
12:53 am 00:53 Cloudy with Light Rain 60 15.6 58 14.4 93 93 Calm 29.92 1013 4 6 0.02 0.51
1:08 am 01:08 Cloudy with Light Rain 61 16 57 14 88 88 SE 8 13 29.91 1013 4 6 0.00 0.00
1:53 am 01:53 Cloudy 61 16.1 59 15 93 93 SSE 5 7 29.87 1012 9 14 0.01 0.25
2:53 am 02:53 Cloudy 64 17.8 60 15.6 87 87 SSW 8 13 29.86 1011 10 16 0.00 0.00
3:53 am 03:53 Cloudy with Heavy Rain 64 17.8 60 15.6 87 87 WSW 5 7 29.86 1011 3 5 0.01 0.25
4:00 am 04:00 Cloudy with Heavy Rain 63 17 61 16 94 94 W 9 15 29.88 1012 2 3 0.00 0.00
4:06 am 04:06 Cloudy with Rain 63 17 61 16 94 94 VRB 5 7 29.88 1012 3 5 0.00 0.00
4:11 am 04:11 Cloudy with Light Rain 63 17.2 61 16.1 93 93 SW 3 6 29.88 1012 6 10 0.00 0.00
4:53 am 04:53 Cloudy with Light Rain 63 17.2 60 15.6 90 90 S 6 9 29.85 1011 10 16 0.00 0.00
5:53 am 05:53 Cloudy 61 16.1 59 15 93 93 SSW 6 9 29.85 1011 10 16 0.01 0.25
6:26 am 06:26 Cloudy 61 16 59 15 94 94 SSW 6 9 29.88 1012 10 16 0.00 0.00
6:53 am 06:53 Cloudy 61 16.1 59 15 93 93 WSW 5 7 29.88 1012 10 16 0.01 0.25
7:14 am 07:14 Cloudy 61 16 59 15 94 94 WSW 6 9 29.91 1013 8 13 0.00 0.00
7:22 am 07:22 Cloudy with Light Rain 61 16 59 15 94 94 VRB 5 7 29.91 1013 3 4 0.00 0.00
7:32 am 07:32 Cloudy with Rain 61 16 59 15 94 94 VRB 3 6 29.91 1013 3 5 0.00 0.00
7:53 am 07:53 Cloudy with Rain 59 15 55 12.8 87 87 W 10 17 29.93 1014 6 10 0.01 0.25
8:37 am 08:37 Cloudy with Light Rain 57 13.9 54 12.2 90 90 SW 5 7 29.91 1013 10 16 0.01 0.25
8:53 am 08:53 Cloudy with Light Rain 56 13.3 53 11.7 90 90 WSW 5 7 29.92 1013 10 16 0.01 0.25
9:37 am 09:37 Cloudy with Light Rain 55 12.8 51 10.6 87 87 VRB 6 9 29.94 1014 10 16 0.00 0.03
9:45 am 09:45 Cloudy with Light Rain 55 12.8 49 9.4 80 80 W 7 11 29.94 1014 10 16 0.00 0.03
9:53 am 09:53 Cloudy 54 12.2 48 8.9 80 80 WNW 6 9 29.94 1014 10 16 0.00 0.03
10:44 am 10:44 Cloudy 54 12 46 8 77 77 SW 6 9 29.97 1015 10 16 0.00 0.00
10:53 am 10:53 Mostly Cloudy 54 12.2 48 8.9 80 80 VRB 3 6 29.95 1014 10 16 0.01 0.25
11:53 am 11:53 Mostly Cloudy 55 12.8 49 9.4 80 80 W 8 13 29.95 1014 10 16 0.00 0.03
12:14 pm 12:14 Mostly Cloudy 56 13.3 49 9.4 77 77 W 6 9 29.94 1014 10 16 0.00 0.00
12:53 pm 12:53 Cloudy 56 13.3 49 9.4 77 77 VRB 7 11 29.92 1013 10 16 0.00 0.00
1:37 pm 13:37 Partly Cloudy 56 13.3 48 8.9 75 75 WNW 8 13 29.88 1012 10 16 0.00 0.00
1:53 pm 13:53 Mostly Sunny 56 13.3 47 8.3 72 72 NW 10 17 29.87 1011 10 16 0.00 0.00
2:53 pm 14:53 Sunny 54 12.2 45 7.2 72 72 VRB 3 6 29.89 1012 10 16 0.00 0.00
3:53 pm 15:53 Sunny 54 12.2 43 6.1 67 67 WNW 9 15 29.91 1013 10 16 0.00 0.00
4:53 pm 16:53 Sunny 54 12.2 43 6.1 67 67 SW 5 7 29.93 1014 10 16 0.00 0.00
5:26 pm 17:26 Partly Cloudy 54 12 43 6 67 67 WSW 5 7 29.97 1015 10 16 0.00 0.00
5:53 pm 17:53 Mostly Clear 52 11.1 42 5.6 69 69 WNW 5 7 29.94 1014 10 16 0.00 0.00
6:53 pm 18:53 Clear 52 11.1 42 5.6 69 69 W 6 9 29.96 1015 10 16 0.00 0.00
7:53 pm 19:53 Clear 51 10.6 40 4.4 66 66 W 3 6 29.98 1015 10 16 0.00 0.00
8:53 pm 20:53 Clear 50 10 41 5 71 71 W 5 7 30.02 1017 10 16 0.00 0.00
9:53 pm 21:53 Clear 49 9.4 38 3.3 66 66 W 6 9 30.02 1017 10 16 0.00 0.00
10:53 pm 22:53 Clear 45 7.2 37 2.8 74 74 W 3 6 30.04 1017 10 16 0.00 0.00
11:53 pm 23:53 Clear 47 8.3 37 2.8 69 69 W 5 7 30.04 1017 10 16 0.00 0.00

Powered by AerisWeather